TimeCST,TemperatureF,Dew PointF,Humidity,Sea Level PressureIn,VisibilityMPH,Wind Direction,Wind SpeedMPH,Gust SpeedMPH,PrecipitationIn,Events,Conditions,WindDirDegrees,DateUTC
12:55 AM,7.0,1.9,80,30.04,3.0,SSW,6.9,-,0.00,Snow,Light Snow,210,2013-12-25 06:55:00
1:55 AM,7.0,1.9,80,30.04,4.0,SW,5.8,-,0.00,Snow,Light Snow,220,2013-12-25 07:55:00
2:55 AM,7.0,1.9,80,30.04,10.0,SW,5.8,-,0.00,,Overcast,220,2013-12-25 08:55:00
3:55 AM,7.0,3.0,84,30.04,10.0,SW,3.5,-,N/A,,Overcast,230,2013-12-25 09:55:00
4:55 AM,8.1,3.0,80,30.04,5.0,WSW,3.5,-,0.00,Snow,Light Snow,250,2013-12-25 10:55:00
5:55 AM,7.0,3.0,84,30.04,10.0,WSW,3.5,-,0.00,,Overcast,240,2013-12-25 11:55:00
6:55 AM,8.1,3.9,83,30.04,9.0,West,3.5,-,N/A,,Overcast,270,2013-12-25 12:55:00
7:55 AM,8.1,3.9,83,30.05,9.0,West,4.6,-,N/A,,Overcast,270,2013-12-25 13:55:00
8:55 AM,9.0,5.0,84,30.06,5.0,West,3.5,-,0.00,Snow,Light Snow,270,2013-12-25 14:55:00
9:55 AM,10.0,5.0,80,30.07,2.5,West,4.6,-,0.00,Snow,Light Snow,280,2013-12-25 15:55:00
10:06 AM,10.4,6.8,85,29.98,1.8,West,5.8,-,0.00,Snow,Light Snow,280,2013-12-25 16:06:00
10:33 AM,10.4,6.8,85,29.99,1.8,West,5.8,-,0.00,Snow,Light Snow,280,2013-12-25 16:33:00
10:40 AM,10.4,6.8,85,29.99,2.0,WNW,5.8,-,0.00,Snow,Light Snow,290,2013-12-25 16:40:00
10:55 AM,12.0,6.1,77,30.08,3.0,West,6.9,-,0.00,,Haze,280,2013-12-25 16:55:00
11:06 AM,12.2,6.8,79,29.99,2.0,WNW,8.1,-,0.00,Snow,Light Snow,290,2013-12-25 17:06:00
11:23 AM,12.2,5.0,73,29.99,2.0,WNW,10.4,-,0.00,Snow,Light Snow,300,2013-12-25 17:23:00
11:31 AM,12.2,5.0,73,29.98,3.0,WNW,9.2,-,0.00,Snow,Light Snow,300,2013-12-25 17:31:00
11:48 AM,12.2,5.0,73,29.98,6.0,WNW,13.8,-,0.00,,Haze,300,2013-12-25 17:48:00
11:55 AM,12.0,3.9,70,30.07,6.0,West,10.4,-,0.00,,Haze,280,2013-12-25 17:55:00
12:26 PM,12.2,3.2,67,29.98,8.0,WNW,11.5,-,0.00,,Overcast,290,2013-12-25 18:26:00
12:37 PM,12.2,3.2,67,29.98,4.0,WNW,13.8,-,0.00,,Haze,290,2013-12-25 18:37:00
12:55 PM,10.9,1.9,67,30.07,8.0,WNW,16.1,23.0,0.00,,Overcast,300,2013-12-25 18:55:00
1:23 PM,10.4,1.4,67,29.98,2.5,WNW,13.8,20.7,0.00,Snow,Light Snow,300,2013-12-25 19:23:00
1:39 PM,10.4,1.4,67,29.98,7.0,WNW,10.4,-,0.00,Snow,Light Snow,300,2013-12-25 19:39:00
1:55 PM,10.0,-0.9,61,30.07,10.0,WNW,12.7,-,0.00,,Overcast,290,2013-12-25 19:55:00
2:26 PM,8.6,-0.4,67,29.99,8.0,WNW,15.0,21.9,0.00,,Overcast,300,2013-12-25 20:26:00
2:37 PM,8.6,-0.4,67,29.99,10.0,NW,15.0,-,0.00,,Overcast,310,2013-12-25 20:37:00
2:55 PM,9.0,-2.0,61,30.08,10.0,WNW,10.4,-,0.00,,Overcast,300,2013-12-25 20:55:00
3:55 PM,8.1,-2.9,61,30.10,9.0,WNW,13.8,19.6,N/A,,Overcast,300,2013-12-25 21:55:00
4:55 PM,7.0,-2.0,67,30.12,10.0,NW,10.4,-,N/A,,Overcast,310,2013-12-25 22:55:00
5:55 PM,6.1,-4.0,63,30.11,10.0,NW,9.2,-,0.00,,Overcast,310,2013-12-25 23:55:00
6:55 PM,5.0,-5.1,63,30.12,10.0,NW,9.2,-,N/A,,Overcast,320,2013-12-26 00:55:00
7:19 PM,5.0,-5.8,61,30.03,10.0,NW,5.8,-,N/A,,Overcast,310,2013-12-26 01:19:00
7:55 PM,3.9,-4.0,70,30.12,10.0,NW,4.6,-,N/A,,Overcast,310,2013-12-26 01:55:00
8:55 PM,3.0,-5.1,69,30.12,10.0,WNW,3.5,-,N/A,,Overcast,290,2013-12-26 02:55:00
9:53 PM,1.4,-5.8,72,30.02,10.0,West,3.5,-,N/A,,Mostly Cloudy,280,2013-12-26 03:53:00
9:55 PM,1.0,-5.1,75,30.12,10.0,Calm,Calm,-,N/A,,Mostly Cloudy,0,2013-12-26 03:55:00
10:55 PM,-9.0,-14.1,79,30.13,10.0,Calm,Calm,-,N/A,,Partly Cloudy,0,2013-12-26 04:55:00
11:08 PM,-9.4,-13.0,84,30.02,10.0,Calm,Calm,-,N/A,,Mostly Cloudy,0,2013-12-26 05:08:00
11:50 PM,-13.0,-18.4,77,30.02,10.0,Calm,Calm,-,N/A,,Scattered Clouds,0,2013-12-26 05:50:00
11:55 PM,-14.1,-18.9,79,30.13,10.0,Calm,Calm,-,N/A,,Scattered Clouds,0,2013-12-26 05:55:00